Location: Cold Norton
(51.6667°N, 0.6667°E)
Time: 17:25:15
(UTC+00:00)

Resurs 01 Rocket - Pass Details

Date: 18 November 2025
Orbit: 626 x 637 km, 97.7° (Epoch: 09 December)

Event Time Altitude Azimuth Distance (km) Brightness Sun altitude
Exits shadow 19:07:36 29° 339° (NNW) 1,170 3.1 -28.2°
Drops below altitude 10° 19:09:49 10° 344° (NNW) 2,036 4.4 -28.6°
Sets 19:12:02 0° 346° (NNW) 2,949 5.3 -28.9°
